Flag for U.S.A. Weather past 2 weeks in Minot, North Dakota, U.S.A.

26 °F

Light snow. Ice fog.

Feels Like: 14 °F
Forecast: 17 / 29 °F
Wind: 14 mph from Northwest

Location: Minot International Airport

Current Time: Nov 25, 2015 at 6:27:49 AM

Latest Report: Nov 25, 2015 at 5:54 AM

Visibility: 2 mi

Pressure: 29.98 "Hg

Humidity: 92%

Dew point: 24 °F

Location of MinotLocation

Historic Weather in Minot — Graph


Minot temperature yesterday

Maximum temperature yesterday: 38 °F (at 1:54 PM)
Minimum temperature yesterday: 23 °F (at 2:54 AM)
Average temperature yesterday: 29 °F

Past Weeks' High & Low Weather Summary

High64 °F (Nov 15, 2:54 PM)97% (Nov 10, 6:54 AM)30.45 "Hg (Nov 10, 6:54 AM)
Low12 °F (Nov 21, 7:54 AM)29% (Nov 15, 2:54 PM)29.05 "Hg (Nov 18, 10:54 AM)
Average33 °F69%29.85 "Hg
* Reported Nov 10 4:54 AM — Nov 25 4:54 AM, Minot, Weather by CustomWeather, © 2015

Note: Actual official high and low records may vary slightly from our data, if they occured in-between our weather recording intervals... More about our weather records


Minot weather history for previous 24 hours

Time TempWeatherWind HumidityBarometerVisibility
4:54 AM
Wed, Nov 25
27 °FIce fog.14 mph89%29.95 "Hg5 mi
3:54 AM27 °FIce fog.12 mph89%29.92 "Hg6 mi
3:01 AM29 °FMostly cloudy.10 mph85%29.85 "Hg7 mi
1:54 AM30 °FLow clouds.10 mph85%29.88 "Hg9 mi
12:54 AM30 °FLow clouds.10 mph89%29.87 "Hg10 mi
11:54 PM
Tue, Nov 24
28 °FPartly cloudy.6 mph89%29.85 "Hg8 mi
10:54 PM29 °FClear.5 mph85%29.84 "Hg10 mi
9:54 PM29 °FClear.5 mph85%29.85 "Hg10 mi
8:54 PM30 °FClear.5 mph82%29.86 "Hg10 mi
7:54 PM30 °FPassing clouds.5 mph80%29.79 "Hg10 mi
6:54 PM31 °FClear.3 mph79%29.86 "Hg10 mi
5:54 PM32 °FPassing clouds.6 mph75%29.87 "Hg10 mi
4:54 PM34 °FScattered clouds.6 mph70%29.86 "Hg10 mi
3:54 PM36 °FPartly sunny.14 mph67%29.84 "Hg10 mi
3:01 PM38 °FScattered clouds.15 mph63%29.78 "Hg10 mi
2:54 PM38 °FPartly sunny.16 mph63%29.84 "Hg10 mi
1:54 PM38 °FPartly sunny.17 mph63%29.86 "Hg10 mi
12:54 PM35 °FPartly sunny.18 mph72%29.88 "Hg10 mi
11:54 AM32 °FPartly sunny.22 mph82%29.91 "Hg10 mi
10:54 AM31 °FLow clouds.21 mph82%29.96 "Hg10 mi
9:54 AM28 °FPartly sunny.16 mph89%29.97 "Hg9 mi
8:54 AM26 °FSunny.10 mph88%29.99 "Hg10 mi
7:54 AM24 °FClear.9 mph88%30.01 "Hg10 mi
6:54 AM24 °FClear.10 mph88%29.99 "Hg10 mi
Weather by CustomWeather, © 2015

See weather overviewHow to use our weather pages